Find Starlink 30092

NORAD ID: 57467 Int'l Des: 2023-107 Owner: SPXS Country: US Constellation: starlink operational
LEOCIRCULAR

当前视图

正在加载3D地球...

About Starlink 30092

Starlink 30092 (NORAD 57467) is a starlink constellation satellite (v2 mini) launched Jul 28, 2023 by SPXS of US. It operates in LEO, CIRCULAR orbit with a mass of 730.00 kg.

即将过境

Passes for default location (London). Set your location on the main map for personalized predictions.

高度历史

Loading altitude history...

两行轨道根数

1 57467U 23107L 26237.90064362 .00000971 00000-0 44818-4 0 9998
2 57467 43.0017 100.6666 0001334 265.4919 94.5780 15.27574534171025
Epoch: Aug 25, 2026 • Age: 7 hours

当前状态

高度 491.3 km
远地点 / 近地点 N/A
速度 7.62 km/s
星下点 -32.56°S, 86.14°W
发射日期 Jul 28, 2023
运行时间 3 years
类型 internet

技术详情

分类 Payload
质量 730.00 kg
干质量 700.00 kg
总质量 730.00 kg
长度 0.30 m
直径 4.10 m
跨度 29.00 m
形状 Box + pan
制造商 SPXS
平台类型 Starlink V2M
阶段状态 In Orbit
所有者/国家 SPXS/US

Most Searched